Flag for Spain Weather past 2 weeks in Santander, Spain

Now
48 °F

Broken clouds.


Feels Like: 43 °F
Forecast: 47 / 57 °F
Wind: 13 mph from Northwest

Location: Santander / Parayas

Current Time: Feb 27, 2015 at 9:21:23 AM

Latest Report: Feb 27, 2015 at 8:30 AM


Visibility: N/A

Pressure: 30.36 "Hg

Humidity: 76%

Dew point: 41 °F

Location of SantanderLocation

Historic Weather in Santander — Graph

°F

Santander temperature yesterday

Maximum temperature yesterday: 55 °F (at 1:00 PM)
Minimum temperature yesterday: 52 °F (at 5:30 AM)
Average temperature yesterday: 53 °F

Past Weeks' High & Low Weather Summary

 TemperatureHumidityPressure
High61 °F (Feb 12, 4:00 PM)100% (Feb 15, 11:00 AM)30.74 "Hg (Feb 15, 11:00 AM)
Low34 °F (Feb 19, 5:30 AM)42% (Feb 12, 3:30 PM)29.74 "Hg (Feb 15, 5:30 AM)
Average49 °F79%30.18 "Hg
* Reported Feb 12 8:00 AM — Feb 27 8:00 AM, Santander, Weather by CustomWeather, © 2015

Note: Actual official high and low records may vary slightly from our data, if they occured in-between our weather recording intervals... More about our weather records

Advertising

Santander weather history for previous 24 hours

 ConditionsComfort  
Time TempWeatherWind HumidityBarometerVisibility
8:00 AM
Fri, Feb 27
48 °FScattered clouds.12 mph71%30.36 "HgN/A
7:30 AM46 °FPassing clouds.12 mph76%30.36 "HgN/A
7:00 AM46 °FLight rain. Partly cloudy.14 mph82%30.36 "Hg5 mi
6:30 AM46 °FRain. Partly cloudy.10 mph82%30.33 "Hg3 mi
6:00 AM48 °FLight rain. Partly cloudy.12 mph76%30.33 "Hg4 mi
5:30 AM48 °FPartly cloudy.13 mph82%30.30 "HgN/A
11:00 PM
Thu, Feb 26
52 °FLight rain. Low clouds.10 mph88%30.24 "Hg5 mi
10:30 PM52 °FLight rain. Mostly cloudy.9 mph88%30.24 "Hg5 mi
10:00 PM52 °FDrizzle. Mostly cloudy.13 mph94%30.24 "Hg2 mi
9:30 PM52 °FRain. Mostly cloudy.16 mph94%30.24 "Hg2 mi
9:00 PM54 °FRain. Mostly cloudy.22 mph94%30.21 "Hg2 mi
8:30 PM52 °FRain. Mostly cloudy.18 mph100%30.21 "Hg1 mi
8:00 PM52 °FRain. Mostly cloudy.16 mph100%30.21 "Hg2 mi
7:30 PM52 °FRain. Mostly cloudy.12 mph94%30.21 "Hg2 mi
7:00 PM54 °FLight rain. Mostly cloudy.14 mph88%30.21 "Hg4 mi
6:30 PM54 °FLight rain. Mostly cloudy.18 mph88%30.21 "Hg4 mi
6:00 PM54 °FLight rain. More clouds than sun.20 mph88%30.21 "Hg4 mi
5:30 PM55 °FLight rain. Mostly cloudy.17 mph82%30.21 "Hg4 mi
5:00 PM55 °FMostly cloudy.14 mph82%30.21 "HgN/A
4:30 PM54 °FMore clouds than sun.10 mph88%30.21 "HgN/A
4:00 PM54 °FDrizzle. More clouds than sun.12 mph94%30.24 "Hg4 mi
3:47 PM54 °FDrizzle. More clouds than sun.14 mph88%30.24 "Hg5 mi
3:30 PM54 °FDrizzle. Mostly cloudy.16 mph88%30.24 "Hg1 mi
3:00 PM54 °FDrizzle. Mostly cloudy.14 mph88%30.27 "Hg1 mi
2:46 PM54 °FDrizzle. More clouds than sun.15 mph88%30.27 "Hg3 mi
2:30 PM55 °FMore clouds than sun.13 mph77%30.27 "HgN/A
2:00 PM55 °FOvercast.6 mph82%30.27 "HgN/A
1:30 PM54 °FMore clouds than sun.16 mph88%30.30 "HgN/A
1:00 PM55 °FOvercast.13 mph82%30.30 "HgN/A
12:30 PM54 °FBroken clouds.13 mph94%30.33 "HgN/A
12:00 PM54 °FLow clouds.17 mph88%30.33 "HgN/A
11:30 AM54 °FPartly sunny.15 mph88%30.33 "HgN/A
11:00 AM54 °FMostly cloudy.15 mph88%30.33 "HgN/A
10:30 AM52 °FDrizzle. Partly sunny.18 mph94%30.36 "Hg5 mi
10:00 AM52 °FMostly cloudy.16 mph88%30.36 "HgN/A
9:30 AM52 °FMostly cloudy.18 mph94%30.36 "HgN/A
9:00 AM52 °FMostly cloudy.17 mph94%30.36 "HgN/A
Weather by CustomWeather, © 2015

See weather overviewHow to use our weather pages